Time,TemperatureF,DewpointF,PressureIn,WindDirection,WindDirectionDegrees,WindSpeedMPH,WindSpeedGustMPH,Humidity,HourlyPrecipIn,Conditions,Clouds,dailyrainin,SolarRadiationWatts/m^2,SoftwareType,DateUTC
2013-04-23 20:12:00,64.0,52.4,30.09,SE,134,0.0,-999.0,66,0.00,,,0.00,0,Wunderground v.1.15,2013-04-24 00:12:00,
2013-04-23 20:15:00,63.7,52.1,30.09,SE,134,0.0,-999.0,66,0.00,,,0.00,0,Wunderground v.1.15,2013-04-24 00:15:00,
2013-04-23 20:16:00,63.7,52.1,30.09,SE,134,0.0,-999.0,66,0.00,,,0.00,0,Wunderground v.1.15,2013-04-24 00:16:00,
2013-04-23 20:21:00,63.1,52.0,30.10,SE,134,0.0,-999.0,67,0.00,,,0.00,0,Wunderground v.1.15,2013-04-24 00:21:00,
2013-04-23 20:22:00,63.0,51.9,30.10,SE,134,0.0,-999.0,67,0.00,,,0.00,0,Wunderground v.1.15,2013-04-24 00:22:00,
2013-04-23 20:28:00,62.3,52.0,30.10,SE,134,0.0,-999.0,69,0.00,,,0.00,0,Wunderground v.1.15,2013-04-24 00:28:00,
2013-04-23 20:33:00,61.8,51.9,30.10,SE,134,0.0,-999.0,70,0.00,,,0.00,0,Wunderground v.1.15,2013-04-24 00:33:00,
2013-04-23 20:39:00,61.4,51.5,30.11,SE,134,0.0,-999.0,70,0.00,,,0.00,0,Wunderground v.1.15,2013-04-24 00:39:00,
2013-04-23 20:45:00,61.1,51.6,30.11,SE,134,0.0,-999.0,71,0.00,,,0.00,0,Wunderground v.1.15,2013-04-24 00:45:00,
2013-04-23 20:50:00,60.7,51.2,30.10,SE,134,0.0,-999.0,71,0.00,,,0.00,0,Wunderground v.1.15,2013-04-24 00:50:00,
2013-04-23 20:55:00,60.3,51.2,30.10,SE,134,0.0,-999.0,72,0.00,,,0.00,0,Wunderground v.1.15,2013-04-24 00:55:00,
2013-04-23 21:00:00,60.0,51.3,30.11,SE,134,0.0,-999.0,73,0.00,,,0.00,0,Wunderground v.1.15,2013-04-24 01:00:00,
2013-04-23 21:06:00,59.7,51.0,30.11,SE,134,0.0,-999.0,73,0.00,,,0.00,0,Wunderground v.1.15,2013-04-24 01:06:00,
2013-04-23 21:11:00,59.3,51.0,30.11,SE,134,0.0,-999.0,74,0.00,,,0.00,0,Wunderground v.1.15,2013-04-24 01:11:00,
2013-04-23 21:17:00,59.0,51.1,30.11,SE,134,0.0,-999.0,75,0.00,,,0.00,0,Wunderground v.1.15,2013-04-24 01:17:00,
2013-04-23 21:22:00,58.7,51.2,30.11,SE,134,0.0,-999.0,76,0.00,,,0.00,0,Wunderground v.1.15,2013-04-24 01:22:00,
2013-04-23 21:27:00,58.4,50.9,30.11,SE,134,0.0,-999.0,76,0.00,,,0.00,0,Wunderground v.1.15,2013-04-24 01:27:00,
2013-04-23 21:33:00,58.1,50.9,30.11,SE,134,0.0,-999.0,77,0.00,,,0.00,0,Wunderground v.1.15,2013-04-24 01:33:00,
2013-04-23 21:38:00,57.9,51.1,30.11,SE,134,0.0,-999.0,78,0.00,,,0.00,0,Wunderground v.1.15,2013-04-24 01:38:00,
2013-04-23 21:43:00,57.6,51.1,30.11,SE,134,0.0,-999.0,79,0.00,,,0.00,0,Wunderground v.1.15,2013-04-24 01:43:00,
2013-04-23 21:48:00,57.4,50.9,30.11,SE,134,0.0,-999.0,79,0.00,,,0.00,0,Wunderground v.1.15,2013-04-24 01:48:00,
2013-04-23 21:53:00,57.2,50.7,30.11,SE,134,0.0,-999.0,79,0.00,,,0.00,0,Wunderground v.1.15,2013-04-24 01:53:00,
2013-04-23 21:59:00,57.1,51.0,30.11,SE,134,0.0,-999.0,80,0.00,,,0.00,0,Wunderground v.1.15,2013-04-24 01:59:00,
2013-04-23 22:04:00,57.0,51.2,30.11,SE,134,0.0,-999.0,81,0.00,,,0.00,0,Wunderground v.1.15,2013-04-24 02:04:00,
2013-04-23 22:09:00,57.0,51.2,30.11,SE,134,0.0,-999.0,81,0.00,,,0.00,0,Wunderground v.1.15,2013-04-24 02:09:00,
2013-04-23 22:14:00,57.1,51.3,30.11,SW,228,0.0,-999.0,81,0.00,,,0.00,0,Wunderground v.1.15,2013-04-24 02:14:00,
2013-04-23 22:20:00,57.1,51.3,30.10,SW,228,0.0,-999.0,81,0.00,,,0.00,0,Wunderground v.1.15,2013-04-24 02:20:00,
2013-04-23 22:25:00,57.1,51.3,30.10,SW,228,0.0,-999.0,81,0.00,,,0.00,0,Wunderground v.1.15,2013-04-24 02:25:00,
2013-04-23 22:30:00,57.1,51.7,30.10,SW,228,0.0,-999.0,82,0.00,,,0.00,0,Wunderground v.1.15,2013-04-24 02:30:00,
2013-04-23 22:36:00,57.1,51.7,30.10,SW,228,0.0,-999.0,82,0.00,,,0.00,0,Wunderground v.1.15,2013-04-24 02:36:00,
2013-04-23 22:41:00,57.1,51.7,30.11,SW,228,0.0,-999.0,82,0.00,,,0.00,0,Wunderground v.1.15,2013-04-24 02:41:00,
2013-04-23 22:47:00,57.1,51.7,30.11,SW,228,0.0,-999.0,82,0.00,,,0.00,0,Wunderground v.1.15,2013-04-24 02:47:00,
2013-04-23 22:52:00,57.1,51.7,30.11,SW,228,0.0,-999.0,82,0.00,,,0.00,0,Wunderground v.1.15,2013-04-24 02:52:00,
2013-04-23 22:58:00,57.1,51.3,30.11,SW,228,0.0,-999.0,81,0.00,,,0.00,0,Wunderground v.1.15,2013-04-24 02:58:00,
2013-04-23 23:04:00,57.0,51.6,30.11,SW,228,0.0,-999.0,82,0.00,,,0.00,0,Wunderground v.1.15,2013-04-24 03:04:00,
2013-04-23 23:09:00,56.9,51.5,30.10,SW,228,0.0,-999.0,82,0.00,,,0.00,0,Wunderground v.1.15,2013-04-24 03:09:00,
2013-04-23 23:14:00,56.8,51.4,30.10,SW,228,0.0,-999.0,82,0.00,,,0.00,0,Wunderground v.1.15,2013-04-24 03:14:00,
2013-04-23 23:20:00,56.8,51.7,30.10,SW,228,0.0,-999.0,83,0.00,,,0.00,0,Wunderground v.1.15,2013-04-24 03:20:00,
2013-04-23 23:25:00,56.8,51.7,30.10,SW,228,0.0,-999.0,83,0.00,,,0.00,0,Wunderground v.1.15,2013-04-24 03:25:00,
2013-04-23 23:32:00,56.8,51.7,30.10,SW,228,0.0,-999.0,83,0.00,,,0.00,0,Wunderground v.1.15,2013-04-24 03:32:00,
2013-04-23 23:38:00,56.8,51.7,30.10,SW,228,0.0,-999.0,83,0.00,,,0.00,0,Wunderground v.1.15,2013-04-24 03:38:00,
2013-04-23 23:44:00,56.7,51.6,30.10,SW,228,0.0,-999.0,83,0.00,,,0.00,0,Wunderground v.1.15,2013-04-24 03:44:00,
2013-04-23 23:50:00,56.7,51.6,30.10,SW,228,0.0,-999.0,83,0.00,,,0.00,0,Wunderground v.1.15,2013-04-24 03:50:00,
2013-04-23 23:55:00,56.6,51.5,30.10,SW,228,0.0,-999.0,83,0.00,,,0.00,0,Wunderground v.1.15,2013-04-24 03:55:00,